Location: Bucquoy
(50.1391°N, 2.7097°E)
Time: 09:20:09
(UTC+00:00)

SJ 16-02 - Pass Details

Date: 06 May 2021
Orbit: 606 x 616 km, 75.0° (Epoch: 21 June)

Event Time Altitude Azimuth Distance (km) Brightness Sun altitude
Exits shadow 00:47:01 - 276° (W) 2,519 4.4 -22.0°
Reaches altitude 10° 00:50:18 10° 311° (NW) 1,988 4.2 -21.8°
Maximum altitude 00:50:51 10° 318° (NW) 1,976 4.3 -21.8°
Drops below altitude 10° 00:51:24 10° 325° (NW) 1,989 4.4 -21.8°
Sets 00:56:03 0° 10° (N) 2,901 6.3 -21.5°
